Regional Weather Roundup
Issued by NWS

Home | Current Version | Previous Version | Graphics & Text | Print | Product List | Glossary On
Versions: 1 2 3 4 5 6 7 8 9 10 11 12 13 14 15 16 17 18 19 20 21 22 23 24 25 26 27 28 29 30 31 32 33 34 35 36 37 38 39 40 41 42 43 44 45 46 47 48 49 50
000
ASUS43 KBIS 270802
RWRND

NORTH DAKOTA REGIONAL WEATHER ROUNDUP
NATIONAL WEATHER SERVICE BISMARCK ND
300 AM CDT TUE JUN 27 2017

NOTE: "FAIR" INDICATES FEW OR NO CLOUDS BELOW 12,000 FEET WITH NO
SIGNIFICANT WEATHER AND/OR OBSTRUCTIONS TO VISIBILITY.


NDZ001>003-009>011-017-270900-
NORTHWEST NORTH DAKOTA

CITY           SKY/WX    TMP DP  RH WIND       PRES   REMARKS
WILLISTON      MOCLDY    69  43  38 S10G21    29.78F
MINOT          PTCLDY    64  39  39 S17G24    29.84F
MINOT AFB      CLOUDY    61  41  47 S12       29.83F
$$

NDZ018>021-031>035-040>046-270900-
SOUTHWEST NORTH DAKOTA

CITY           SKY/WX    TMP DP  RH WIND       PRES   REMARKS
BISMARCK       PTCLDY    60  40  47 S14       29.94F
DICKINSON      PTCLDY    60  35  39 S28G36    29.83F
GARRISON         N/A     61  42  49 S13G21    29.89F
HETTINGER ARPT CLOUDY    60  35  39 SE17G28   29.90F
$$

NDZ004>008-012>016-024-026-027-054-270900-
NORTHEAST NORTH DAKOTA

CITY           SKY/WX    TMP DP  RH WIND       PRES   REMARKS
GRAND FORKS    CLEAR     50  43  77 S8        29.97F
GRND FRKS AFB  CLEAR     50  41  71 SW5       29.97F
DEVILS LAKE    CLEAR     59  42  53 S14       29.95F
$$

NDZ022-023-025-028>030-036>039-047>053-270900-
SOUTHEAST NORTH DAKOTA

CITY           SKY/WX    TMP DP  RH WIND       PRES   REMARKS
FARGO          CLEAR     53  40  61 S9        30.01F
JAMESTOWN      CLEAR     51  40  65 S10       29.98F
$$




USA.gov is the U.S. government's official web portal to all federal, state and local government web resources and services.